Time,TemperatureF,DewpointF,PressureIn,WindDirection,WindDirectionDegrees,WindSpeedMPH,WindSpeedGustMPH,Humidity,HourlyPrecipIn,Conditions,Clouds,dailyrainin,SoftwareType,DateUTC
2013-03-22 00:00:00,31.0,13.1,29.69,NNW,328,3.0,4.0,47,0.00,,,0.00,Wunderground v.1.15,2013-03-22 04:00:00,
2013-03-22 00:05:00,31.0,13.6,29.70,WNW,294,4.0,4.0,48,0.00,,,0.00,Wunderground v.1.15,2013-03-22 04:05:00,
2013-03-22 00:15:00,30.6,13.7,29.70,NNW,327,2.0,4.0,49,0.00,,,0.00,Wunderground v.1.15,2013-03-22 04:15:00,
2013-03-22 00:25:00,30.1,14.1,29.69,NNE,32,2.0,7.0,51,0.00,,,0.00,Wunderground v.1.15,2013-03-22 04:25:00,
2013-03-22 00:30:00,30.0,13.6,29.69,North,360,2.0,2.0,50,0.00,,,0.00,Wunderground v.1.15,2013-03-22 04:30:00,
2013-03-22 00:35:00,29.8,13.4,29.70,North,355,1.0,2.0,50,0.00,,,0.00,Wunderground v.1.15,2013-03-22 04:35:00,
2013-03-22 00:45:00,29.4,14.4,29.70,NNW,347,0.0,1.0,53,0.00,,,0.00,Wunderground v.1.15,2013-03-22 04:45:00,
2013-03-22 00:55:00,29.1,14.1,29.70,NNW,348,0.0,1.0,53,0.00,,,0.00,Wunderground v.1.15,2013-03-22 04:55:00,
2013-03-22 01:10:00,28.1,14.8,29.70,NNW,348,0.0,0.0,57,0.00,,,0.00,Wunderground v.1.15,2013-03-22 05:10:00,
2013-03-22 01:15:00,28.4,14.7,29.70,NNW,348,0.0,0.0,56,0.00,,,0.00,Wunderground v.1.15,2013-03-22 05:15:00,
2013-03-22 01:25:00,28.4,14.7,29.71,NNW,348,0.0,0.0,56,0.00,,,0.00,Wunderground v.1.15,2013-03-22 05:25:00,
2013-03-22 01:35:00,27.9,15.0,29.70,WNW,286,0.0,0.0,58,0.00,,,0.00,Wunderground v.1.15,2013-03-22 05:35:00,
2013-03-22 01:45:00,28.4,14.3,29.70,WNW,283,1.0,1.0,55,0.00,,,0.00,Wunderground v.1.15,2013-03-22 05:45:00,
2013-03-22 01:55:00,28.2,14.1,29.71,WNW,292,0.0,0.0,55,0.00,,,0.00,Wunderground v.1.15,2013-03-22 05:55:00,
2013-03-22 02:05:00,27.8,13.7,29.71,WNW,292,0.0,0.0,55,0.00,,,0.00,Wunderground v.1.15,2013-03-22 06:05:00,
2013-03-22 02:15:00,27.8,14.5,29.71,WNW,292,0.0,0.0,57,0.00,,,0.00,Wunderground v.1.15,2013-03-22 06:15:00,
2013-03-22 02:25:00,28.4,14.7,29.71,WNW,292,0.0,2.0,56,0.00,,,0.00,Wunderground v.1.15,2013-03-22 06:25:00,
2013-03-22 02:35:00,28.8,14.6,29.71,WNW,292,0.0,0.0,55,0.00,,,0.00,Wunderground v.1.15,2013-03-22 06:35:00,
2013-03-22 02:45:00,29.0,14.4,29.71,WNW,292,0.0,0.0,54,0.00,,,0.00,Wunderground v.1.15,2013-03-22 06:45:00,
2013-03-22 02:55:00,29.1,14.9,29.70,WNW,292,0.0,1.0,55,0.00,,,0.00,Wunderground v.1.15,2013-03-22 06:55:00,
2013-03-22 03:05:00,29.1,14.5,29.70,WNW,292,0.0,0.0,54,0.00,,,0.00,Wunderground v.1.15,2013-03-22 07:05:00,
2013-03-22 03:15:00,29.0,14.4,29.70,WNW,291,0.0,0.0,54,0.00,,,0.00,Wunderground v.1.15,2013-03-22 07:15:00,
2013-03-22 03:25:00,28.5,13.5,29.69,WNW,291,0.0,0.0,53,0.00,,,0.00,Wunderground v.1.15,2013-03-22 07:25:00,
2013-03-22 03:35:00,28.1,14.0,29.69,WNW,291,0.0,0.0,55,0.00,,,0.00,Wunderground v.1.15,2013-03-22 07:35:00,
2013-03-22 03:45:00,27.5,14.2,29.69,WNW,291,0.0,0.0,57,0.00,,,0.00,Wunderground v.1.15,2013-03-22 07:45:00,
2013-03-22 03:55:00,27.5,14.6,29.69,WNW,290,0.0,0.0,58,0.00,,,0.00,Wunderground v.1.15,2013-03-22 07:55:00,
2013-03-22 04:05:00,27.8,14.9,29.68,WNW,292,0.0,0.0,58,0.00,,,0.00,Wunderground v.1.15,2013-03-22 08:05:00,
2013-03-22 04:15:00,27.9,14.2,29.68,WNW,292,0.0,1.0,56,0.00,,,0.00,Wunderground v.1.15,2013-03-22 08:15:00,
2013-03-22 04:25:00,28.2,14.1,29.68,WNW,291,0.0,0.0,55,0.00,,,0.00,Wunderground v.1.15,2013-03-22 08:25:00,
2013-03-22 04:35:00,28.7,15.0,29.68,South,188,0.0,2.0,56,0.00,,,0.00,Wunderground v.1.15,2013-03-22 08:35:00,
2013-03-22 04:45:00,28.8,14.6,29.68,West,275,0.0,2.0,55,0.00,,,0.00,Wunderground v.1.15,2013-03-22 08:45:00,
2013-03-22 04:55:00,29.0,14.8,29.69,West,275,0.0,0.0,55,0.00,,,0.00,Wunderground v.1.15,2013-03-22 08:55:00,
2013-03-22 05:05:00,28.7,15.0,29.69,WNW,284,0.0,1.0,56,0.00,,,0.00,Wunderground v.1.15,2013-03-22 09:05:00,
2013-03-22 05:15:00,28.5,15.6,29.69,WNW,284,0.0,0.0,58,0.00,,,0.00,Wunderground v.1.15,2013-03-22 09:15:00,
2013-03-22 05:25:00,28.8,15.5,29.69,WNW,284,0.0,0.0,57,0.00,,,0.00,Wunderground v.1.15,2013-03-22 09:25:00,
2013-03-22 05:35:00,28.7,15.8,29.69,WNW,284,0.0,0.0,58,0.00,,,0.00,Wunderground v.1.15,2013-03-22 09:35:00,
2013-03-22 05:45:00,28.1,15.6,29.69,WNW,284,0.0,1.0,59,0.00,,,0.00,Wunderground v.1.15,2013-03-22 09:45:00,
2013-03-22 05:55:00,27.6,15.9,29.69,WNW,284,0.0,0.0,61,0.00,,,0.00,Wunderground v.1.15,2013-03-22 09:55:00,
2013-03-22 06:05:00,27.2,16.3,29.70,WNW,284,0.0,0.0,63,0.00,,,0.00,Wunderground v.1.15,2013-03-22 10:05:00,
2013-03-22 06:15:00,27.0,16.4,29.70,WNW,284,0.0,0.0,64,0.00,,,0.00,Wunderground v.1.15,2013-03-22 10:15:00,
2013-03-22 06:25:00,26.9,16.7,29.70,WNW,284,0.0,0.0,65,0.00,,,0.00,Wunderground v.1.15,2013-03-22 10:25:00,
2013-03-22 06:35:00,26.6,16.8,29.70,WNW,284,0.0,0.0,66,0.00,,,0.00,Wunderground v.1.15,2013-03-22 10:35:00,
2013-03-22 06:45:00,26.4,17.3,29.70,WNW,284,0.0,0.0,68,0.00,,,0.00,Wunderground v.1.15,2013-03-22 10:45:00,
2013-03-22 06:55:00,26.1,17.3,29.71,WNW,284,0.0,0.0,69,0.00,,,0.00,Wunderground v.1.15,2013-03-22 10:55:00,
2013-03-22 07:05:00,26.3,17.8,29.71,WNW,284,0.0,0.0,70,0.00,,,0.00,Wunderground v.1.15,2013-03-22 11:05:00,
2013-03-22 07:15:00,26.4,18.3,29.71,WNW,284,0.0,0.0,71,0.00,,,0.00,Wunderground v.1.15,2013-03-22 11:15:00,
2013-03-22 07:25:00,27.0,18.8,29.73,WNW,284,0.0,0.0,71,0.00,,,0.00,Wunderground v.1.15,2013-03-22 11:25:00,
2013-03-22 07:35:00,27.8,18.9,29.73,WNW,283,0.0,0.0,69,0.00,,,0.00,Wunderground v.1.15,2013-03-22 11:35:00,
2013-03-22 07:45:00,28.5,18.9,29.73,WNW,283,0.0,0.0,67,0.00,,,0.00,Wunderground v.1.15,2013-03-22 11:45:00,
2013-03-22 07:55:00,29.3,19.0,29.73,WNW,283,0.0,0.0,65,0.00,,,0.00,Wunderground v.1.15,2013-03-22 11:55:00,
2013-03-22 08:10:00,30.3,19.2,29.74,WSW,242,1.0,3.0,63,0.00,,,0.00,Wunderground v.1.15,2013-03-22 12:10:00,
2013-03-22 08:15:00,30.4,18.5,29.74,West,261,1.0,3.0,61,0.00,,,0.00,Wunderground v.1.15,2013-03-22 12:15:00,
2013-03-22 08:25:00,31.0,19.1,29.74,SW,234,1.0,4.0,61,0.00,,,0.00,Wunderground v.1.15,2013-03-22 12:25:00,
2013-03-22 08:35:00,31.8,19.5,29.74,NW,314,1.0,4.0,60,0.00,,,0.00,Wunderground v.1.15,2013-03-22 12:35:00,
2013-03-22 08:45:00,31.9,19.2,29.74,NW,306,1.0,1.0,59,0.00,,,0.00,Wunderground v.1.15,2013-03-22 12:45:00,
2013-03-22 08:55:00,32.5,18.5,29.74,WNW,303,1.0,3.0,56,0.00,,,0.00,Wunderground v.1.15,2013-03-22 12:55:00,
2013-03-22 09:05:00,33.5,19.0,29.74,West,281,2.0,6.0,55,0.00,,,0.00,Wunderground v.1.15,2013-03-22 13:05:00,
2013-03-22 09:15:00,34.0,19.1,29.74,WNW,293,3.0,7.0,54,0.00,,,0.00,Wunderground v.1.15,2013-03-22 13:15:00,
2013-03-22 09:25:00,34.7,19.3,29.74,WNW,293,3.0,3.0,53,0.00,,,0.00,Wunderground v.1.15,2013-03-22 13:25:00,
2013-03-22 09:35:00,34.4,18.6,29.74,NW,325,3.0,4.0,52,0.00,,,0.00,Wunderground v.1.15,2013-03-22 13:35:00,
2013-03-22 09:45:00,35.2,18.9,29.74,West,263,3.0,7.0,51,0.00,,,0.00,Wunderground v.1.15,2013-03-22 13:45:00,
2013-03-22 09:55:00,35.3,18.0,29.74,NW,326,4.0,9.0,49,0.00,,,0.00,Wunderground v.1.15,2013-03-22 13:55:00,
2013-03-22 10:05:00,36.0,18.7,29.74,West,271,3.0,6.0,49,0.00,,,0.00,Wunderground v.1.15,2013-03-22 14:05:00,
2013-03-22 10:15:00,36.3,18.9,29.74,WNW,296,4.0,4.0,49,0.00,,,0.00,Wunderground v.1.15,2013-03-22 14:15:00,
2013-03-22 10:25:00,35.9,17.1,29.74,NW,317,4.0,4.0,46,0.00,,,0.00,Wunderground v.1.15,2013-03-22 14:25:00,
2013-03-22 10:35:00,36.9,18.5,29.74,NNW,340,4.0,4.0,47,0.00,,,0.00,Wunderground v.1.15,2013-03-22 14:35:00,
2013-03-22 10:45:00,37.6,18.2,29.74,WNW,288,4.0,5.0,45,0.00,,,0.00,Wunderground v.1.15,2013-03-22 14:45:00,
2013-03-22 10:55:00,37.8,19.8,29.74,NW,319,4.0,6.0,48,0.00,,,0.00,Wunderground v.1.15,2013-03-22 14:55:00,
2013-03-22 11:06:00,37.8,17.8,29.74,North,355,5.0,6.0,44,0.00,,,0.00,Wunderground v.1.15,2013-03-22 15:06:00,
2013-03-22 11:15:00,38.6,18.5,29.74,NW,321,4.0,4.0,44,0.00,,,0.00,Wunderground v.1.15,2013-03-22 15:15:00,
2013-03-22 11:25:00,39.5,18.8,29.74,WNW,291,4.0,5.0,43,0.00,,,0.00,Wunderground v.1.15,2013-03-22 15:25:00,
2013-03-22 11:35:00,39.2,18.5,29.75,WNW,300,5.0,6.0,43,0.00,,,0.00,Wunderground v.1.15,2013-03-22 15:35:00,
2013-03-22 11:45:00,40.8,19.5,29.75,North,355,4.0,11.0,42,0.00,,,0.00,Wunderground v.1.15,2013-03-22 15:45:00,
2013-03-22 11:55:00,38.0,16.9,29.75,NE,34,5.0,5.0,42,0.00,,,0.00,Wunderground v.1.15,2013-03-22 15:55:00,
2013-03-22 12:05:00,38.5,18.4,29.74,West,275,3.0,8.0,44,0.00,,,0.00,Wunderground v.1.15,2013-03-22 16:05:00,
2013-03-22 12:15:00,38.6,17.5,29.74,NW,308,4.0,5.0,42,0.00,,,0.00,Wunderground v.1.15,2013-03-22 16:15:00,
2013-03-22 12:25:00,40.2,20.0,29.74,West,273,4.0,7.0,44,0.00,,,0.00,Wunderground v.1.15,2013-03-22 16:25:00,
2013-03-22 12:35:00,40.5,16.9,29.74,WSW,249,5.0,5.0,38,0.00,,,0.00,Wunderground v.1.15,2013-03-22 16:35:00,
2013-03-22 12:45:00,39.5,17.7,29.74,West,275,4.0,5.0,41,0.00,,,0.00,Wunderground v.1.15,2013-03-22 16:45:00,
2013-03-22 12:55:00,39.2,18.0,29.75,NW,305,3.0,5.0,42,0.00,,,0.00,Wunderground v.1.15,2013-03-22 16:55:00,
2013-03-22 13:05:00,38.3,17.7,29.74,WNW,287,5.0,8.0,43,0.00,,,0.00,Wunderground v.1.15,2013-03-22 17:05:00,
2013-03-22 13:15:00,38.3,17.2,29.74,NW,323,3.0,4.0,42,0.00,,,0.00,Wunderground v.1.15,2013-03-22 17:15:00,
2013-03-22 13:25:00,38.5,17.4,29.74,NNW,327,5.0,5.0,42,0.00,,,0.00,Wunderground v.1.15,2013-03-22 17:25:00,
2013-03-22 13:35:00,41.8,19.8,29.74,SW,232,4.0,9.0,41,0.00,,,0.00,Wunderground v.1.15,2013-03-22 17:35:00,
2013-03-22 13:45:00,40.6,18.1,29.74,NW,315,5.0,5.0,40,0.00,,,0.00,Wunderground v.1.15,2013-03-22 17:45:00,
2013-03-22 13:55:00,39.9,18.1,29.73,SW,234,4.0,10.0,41,0.00,,,0.00,Wunderground v.1.15,2013-03-22 17:55:00,
2013-03-22 14:05:00,40.8,18.9,29.73,North,349,4.0,6.0,41,0.00,,,0.00,Wunderground v.1.15,2013-03-22 18:05:00,
2013-03-22 14:15:00,40.5,18.6,29.73,NW,316,6.0,7.0,41,0.00,,,0.00,Wunderground v.1.15,2013-03-22 18:15:00,
2013-03-22 14:25:00,39.8,18.5,29.73,WNW,288,4.0,11.0,42,0.00,,,0.00,Wunderground v.1.15,2013-03-22 18:25:00,
2013-03-22 14:35:00,39.6,18.4,29.73,SW,223,3.0,8.0,42,0.00,,,0.00,Wunderground v.1.15,2013-03-22 18:35:00,
2013-03-22 14:45:00,39.3,18.6,29.73,WSW,250,3.0,4.0,43,0.00,,,0.00,Wunderground v.1.15,2013-03-22 18:45:00,
2013-03-22 14:55:00,38.8,19.2,29.73,NW,320,4.0,9.0,45,0.00,,,0.00,Wunderground v.1.15,2013-03-22 18:55:00,
2013-03-22 15:05:00,39.2,19.6,29.73,SW,232,3.0,5.0,45,0.00,,,0.00,Wunderground v.1.15,2013-03-22 19:05:00,
2013-03-22 15:15:00,40.2,18.9,29.73,SW,229,4.0,4.0,42,0.00,,,0.00,Wunderground v.1.15,2013-03-22 19:15:00,
2013-03-22 15:25:00,40.1,18.8,29.73,NW,317,4.0,5.0,42,0.00,,,0.00,Wunderground v.1.15,2013-03-22 19:25:00,
2013-03-22 15:35:00,40.2,18.9,29.73,WSW,253,3.0,4.0,42,0.00,,,0.00,Wunderground v.1.15,2013-03-22 19:35:00,
2013-03-22 15:45:00,39.9,18.1,29.73,WNW,300,5.0,5.0,41,0.00,,,0.00,Wunderground v.1.15,2013-03-22 19:45:00,
2013-03-22 15:55:00,39.9,18.6,29.73,WNW,293,5.0,7.0,42,0.00,,,0.00,Wunderground v.1.15,2013-03-22 19:55:00,
2013-03-22 16:05:00,40.1,18.3,29.73,West,270,3.0,4.0,41,0.00,,,0.00,Wunderground v.1.15,2013-03-22 20:05:00,
2013-03-22 16:15:00,40.3,20.1,29.73,North,355,5.0,5.0,44,0.00,,,0.00,Wunderground v.1.15,2013-03-22 20:15:00,
2013-03-22 16:25:00,40.3,18.4,29.73,West,279,5.0,11.0,41,0.00,,,0.00,Wunderground v.1.15,2013-03-22 20:25:00,
2013-03-22 16:35:00,40.6,18.1,29.74,West,277,4.0,6.0,40,0.00,,,0.00,Wunderground v.1.15,2013-03-22 20:35:00,
2013-03-22 16:45:00,40.8,18.3,29.74,NW,308,4.0,4.0,40,0.00,,,0.00,Wunderground v.1.15,2013-03-22 20:45:00,
2013-03-22 16:55:00,41.1,18.6,29.74,WNW,294,4.0,4.0,40,0.00,,,0.00,Wunderground v.1.15,2013-03-22 20:55:00,
2013-03-22 17:05:00,41.1,18.6,29.74,WSW,253,6.0,6.0,40,0.00,,,0.00,Wunderground v.1.15,2013-03-22 21:05:00,
2013-03-22 17:15:00,41.2,19.2,29.74,WSW,244,4.0,9.0,41,0.00,,,0.00,Wunderground v.1.15,2013-03-22 21:15:00,
2013-03-22 17:25:00,41.3,18.8,29.74,NW,313,4.0,8.0,40,0.00,,,0.00,Wunderground v.1.15,2013-03-22 21:25:00,
2013-03-22 17:35:00,40.8,18.9,29.74,North,355,4.0,10.0,41,0.00,,,0.00,Wunderground v.1.15,2013-03-22 21:35:00,
2013-03-22 17:45:00,40.3,19.0,29.74,NW,315,4.0,9.0,42,0.00,,,0.00,Wunderground v.1.15,2013-03-22 21:45:00,
2013-03-22 17:55:00,40.3,17.9,29.74,NE,49,3.0,5.0,40,0.00,,,0.00,Wunderground v.1.15,2013-03-22 21:55:00,
2013-03-22 18:05:00,40.1,18.3,29.75,West,263,4.0,4.0,41,0.00,,,0.00,Wunderground v.1.15,2013-03-22 22:05:00,
2013-03-22 18:15:00,40.1,18.3,29.75,WNW,290,3.0,3.0,41,0.00,,,0.00,Wunderground v.1.15,2013-03-22 22:15:00,
2013-03-22 18:20:00,40.1,18.8,29.76,NNE,22,4.0,4.0,42,0.00,,,0.00,Wunderground v.1.15,2013-03-22 22:20:00,
2013-03-22 18:25:00,39.9,18.6,29.76,NW,307,3.0,4.0,42,0.00,,,0.00,Wunderground v.1.15,2013-03-22 22:25:00,
2013-03-22 18:35:00,39.6,18.9,29.76,WSW,243,3.0,9.0,43,0.00,,,0.00,Wunderground v.1.15,2013-03-22 22:35:00,
2013-03-22 18:45:00,39.5,18.3,29.76,WNW,300,5.0,6.0,42,0.00,,,0.00,Wunderground v.1.15,2013-03-22 22:45:00,
2013-03-22 18:55:00,39.2,18.5,29.76,NW,318,3.0,4.0,43,0.00,,,0.00,Wunderground v.1.15,2013-03-22 22:55:00,
2013-03-22 19:05:00,38.9,18.3,29.77,NW,304,4.0,6.0,43,0.00,,,0.00,Wunderground v.1.15,2013-03-22 23:05:00,
2013-03-22 19:15:00,38.5,19.0,29.77,SW,236,3.0,7.0,45,0.00,,,0.00,Wunderground v.1.15,2013-03-22 23:15:00,
2013-03-22 19:25:00,38.2,18.7,29.77,WNW,284,3.0,3.0,45,0.00,,,0.00,Wunderground v.1.15,2013-03-22 23:25:00,
2013-03-22 19:35:00,37.8,18.8,29.78,NW,305,1.0,3.0,46,0.00,,,0.00,Wunderground v.1.15,2013-03-22 23:35:00,
2013-03-22 19:45:00,37.0,19.1,29.78,NW,305,1.0,3.0,48,0.00,,,0.00,Wunderground v.1.15,2013-03-22 23:45:00,
2013-03-22 19:55:00,37.2,19.3,29.79,WNW,288,1.0,1.0,48,0.00,,,0.00,Wunderground v.1.15,2013-03-22 23:55:00,
2013-03-22 20:05:00,37.6,19.7,29.80,SE,143,1.0,2.0,48,0.00,,,0.00,Wunderground v.1.15,2013-03-23 00:05:00,
2013-03-22 20:15:00,37.5,20.1,29.80,WNW,298,1.0,1.0,49,0.00,,,0.00,Wunderground v.1.15,2013-03-23 00:15:00,
2013-03-22 20:25:00,37.6,20.1,29.80,WNW,301,1.0,1.0,49,0.00,,,0.00,Wunderground v.1.15,2013-03-23 00:25:00,
2013-03-22 20:35:00,37.8,19.3,29.81,WNW,301,2.0,2.0,47,0.00,,,0.00,Wunderground v.1.15,2013-03-23 00:35:00,
2013-03-22 20:50:00,37.9,19.9,29.81,WNW,299,1.0,2.0,48,0.00,,,0.00,Wunderground v.1.15,2013-03-23 00:50:00,
2013-03-22 20:55:00,37.9,19.9,29.81,WNW,299,1.0,2.0,48,0.00,,,0.00,Wunderground v.1.15,2013-03-23 00:55:00,
2013-03-22 21:05:00,37.5,20.1,29.81,WSW,248,1.0,1.0,49,0.00,,,0.00,Wunderground v.1.15,2013-03-23 01:05:00,
2013-03-22 21:15:00,36.8,19.9,29.81,WNW,295,1.0,1.0,50,0.00,,,0.00,Wunderground v.1.15,2013-03-23 01:15:00,
2013-03-22 21:25:00,36.0,20.1,29.82,WNW,295,1.0,1.0,52,0.00,,,0.00,Wunderground v.1.15,2013-03-23 01:25:00,
2013-03-22 21:35:00,35.9,20.0,29.81,WNW,296,1.0,2.0,52,0.00,,,0.00,Wunderground v.1.15,2013-03-23 01:35:00,
2013-03-22 21:45:00,35.6,20.1,29.81,WNW,296,1.0,1.0,53,0.00,,,0.00,Wunderground v.1.15,2013-03-23 01:45:00,
2013-03-22 21:55:00,35.5,20.0,29.82,WNW,296,1.0,1.0,53,0.00,,,0.00,Wunderground v.1.15,2013-03-23 01:55:00,
2013-03-22 22:05:00,34.9,20.4,29.82,WNW,295,1.0,1.0,55,0.00,,,0.00,Wunderground v.1.15,2013-03-23 02:05:00,
2013-03-22 22:15:00,34.7,20.6,29.82,WNW,295,0.0,1.0,56,0.00,,,0.00,Wunderground v.1.15,2013-03-23 02:15:00,
2013-03-22 22:25:00,34.6,20.5,29.82,WNW,292,1.0,1.0,56,0.00,,,0.00,Wunderground v.1.15,2013-03-23 02:25:00,
2013-03-22 22:35:00,34.4,20.3,29.82,WSW,256,1.0,1.0,56,0.00,,,0.00,Wunderground v.1.15,2013-03-23 02:35:00,
2013-03-22 22:40:00,34.1,20.9,29.82,WSW,256,1.0,1.0,58,0.00,,,0.00,Wunderground v.1.15,2013-03-23 02:40:00,
2013-03-22 22:45:00,34.1,20.9,29.82,WSW,256,0.0,1.0,58,0.00,,,0.00,Wunderground v.1.15,2013-03-23 02:45:00,
2013-03-22 22:55:00,33.1,20.7,29.82,WSW,256,0.0,0.0,60,0.00,,,0.00,Wunderground v.1.15,2013-03-23 02:55:00,
2013-03-22 23:05:00,32.5,20.9,29.82,WSW,256,0.0,0.0,62,0.00,,,0.00,Wunderground v.1.15,2013-03-23 03:05:00,
2013-03-22 23:15:00,32.4,21.2,29.82,WSW,256,0.0,0.0,63,0.00,,,0.00,Wunderground v.1.15,2013-03-23 03:15:00,
2013-03-22 23:25:00,32.5,21.7,29.83,WSW,256,1.0,1.0,64,0.00,,,0.00,Wunderground v.1.15,2013-03-23 03:25:00,
2013-03-22 23:35:00,32.7,21.9,29.83,WSW,256,0.0,2.0,64,0.00,,,0.00,Wunderground v.1.15,2013-03-23 03:35:00,
2013-03-22 23:45:00,32.4,22.3,29.83,WSW,256,0.0,0.0,66,0.00,,,0.00,Wunderground v.1.15,2013-03-23 03:45:00,
2013-03-22 23:55:00,31.5,22.1,29.83,WSW,256,0.0,0.0,68,0.00,,,0.00,Wunderground v.1.15,2013-03-23 03:55:00,